Regional Weather Roundup
Issued by NWS Sterling, VA

Home | Current Version | Previous Version | Text Only | Print | Product List | Glossary Off
Versions: 1 2 3 4 5 6 7 8 9 10 11 12 13 14 15 16 17 18 19 20 21 22 23 24 25 26 27 28 29 30 31 32 33 34 35 36 37 38 39 40 41 42 43 44 45 46 47 48 49 50

472
ASUS41 KLWX 220611
RWRLWX

REGIONAL WEATHER ROUNDUP
NATIONAL WEATHER SERVICE BALTIMORE MD/WASHINGTON DC
200 AM EDT TUE AUG 22 2017

Note: "FAIR" indicates few or no clouds below 12,000 feet
with no significant weather and/or obstructions to visibility.
 TC=TEMPERATURE CELSIUS

 * =Non NWS site. Station does not report precipitation (e.g. rain,
    snow, etc.), thunder, or fog.

DCZ001-MDZ009-015-VAZ040>042-051-053>054-220700-
WASHINGTON METRO

CITY           SKY/WX    TMP DP  RH WIND       PRES   REMARKS
WASHINGTON NAT MOCLDY    76  74  93 S6        30.10F
DULLES         PTCLDY    72  71  97 CALM      30.10S
ANDREWS AFB    CLEAR     73  70  91 SW8       30.09F
FT BELVOIR     CLEAR     71  70  96 CALM      30.09F
QUANTICO       CLEAR     77  75  93 SW7       30.10F
COLLEGE PARK*  CLEAR     71  70  95 CALM      30.09F
LEESBURG*      CLEAR     73  72  94 CALM      30.11S
MANASSAS*      CLEAR     71  70  96 CALM      30.10F
GAITHERSBURG*  CLEAR     73  71  93 S3        30.12S

$$

MDZ006>007-011-014-220700-
BALTIMORE METRO

CITY           SKY/WX    TMP DP  RH WIND       PRES   REMARKS
BWI AIRPORT    PTCLDY    70  70 100 W3        30.09F
MD SCIENCE CTR   N/A     76  72  87 MISG      30.09F
MARTIN STATE   CLEAR     73  73 100 CALM      30.10F
ANNAPOLIS      CLEAR     77  75  93 CALM      30.08F
FORT MEADE*    CLEAR     68  68 100 CALM      30.12F

$$

MDZ012-015-019>023-220700-
MARYLAND EASTERN SHORE

CITY           SKY/WX    TMP DP  RH WIND       PRES   REMARKS
OCEAN CITY     CLOUDY    78  77  96 SW7       30.13F
SALISBURY      CLEAR     75  75 100 S7        30.11F
BAY BRIDGE AP* CLEAR     77  75  94 S3        30.09F
CAMBRIDGE*     PTCLDY    77  75  94 CALM      30.10F
EASTON*        CLEAR    N/A N/A N/A CALM      30.13F

$$

MDZ017>025-220700-
SOUTHERN MARYLAND

CITY           SKY/WX    TMP DP  RH WIND       PRES   REMARKS
PATUXENT RIVER CLEAR     78  75  90 SW8       30.09F
ST INIGOES     CLEAR     79  75  87 S7        30.10F
LEONARDTOWN*   CLEAR     75  72  88 S3        30.12F

$$

MDZ003>005-220700-
NORTH CENTRAL MARYLAND

CITY           SKY/WX    TMP DP  RH WIND       PRES   REMARKS
FREDERICK*     CLEAR     72  72 100 CALM      30.12F
HAGERSTOWN APT CLEAR     73  69  87 E5        30.10F
WESTMINSTER*   CLEAR     73  70  88 S3        30.11F

$$

MDZ501>502-220700-
WESTERN MARYLAND

CITY           SKY/WX    TMP DP  RH WIND       PRES   REMARKS
OAKLAND*       CLEAR     66  63  88 SW5       30.19F
CUMBERLAND*    CLEAR     70  70 100 CALM      30.15S

$$

VAZ025>031-220700-
SHENANDOAH VALLEY

CITY           SKY/WX    TMP DP  RH WIND       PRES   REMARKS
WINCHESTER*    CLEAR     68  66  94 CALM      30.10F
FRONT ROYAL*   CLEAR     72  70  94 S3        30.10F
LURAY*         CLEAR     70  70 100 CALM      30.13F FOG
NEW MARKET*    CLEAR     70  68  94 CALM      30.12S
STAUNTON*      CLEAR     71  67  88 CALM      30.16F
WAYNESBORO*    PTCLDY    72  69  91 SW3       30.16F

$$

WVZ021-048>050-054>055-220700-
EASTERN WEST VIRGINIA PANHANDLE

CITY           SKY/WX    TMP DP  RH WIND       PRES   REMARKS
MARTINSBURG    CLEAR     72  69  90 CALM      30.09S
PETERSBURG*    CLEAR     68  67  98 CALM      30.13F FOG

$$

VAZ036>039-050-220700-
CENTRAL FOOTHILLS

CITY           SKY/WX    TMP DP  RH WIND       PRES   REMARKS
CHARLOTTESVILL CLEAR     74  71  91 W3        30.11F
CULPEPER*      CLEAR     69  69  97 CALM      30.11F
ORANGE*        CLEAR     68  68 100 CALM      30.11F
GORDONSVILLE*  CLEAR     70  70 100 CALM      30.11F
WARRENTON*     CLEAR     68  66  91 CALM      30.10S FOG

$$

VAZ055>057-220700-
NORTH AND CENTRAL PIEDMONT

CITY           SKY/WX    TMP DP  RH WIND       PRES   REMARKS
FREDERICKSBRG* CLEAR     75  75 100 CALM      30.09F
STAFFORD*      CLEAR     73  73 100 CALM      30.14F

$$

NCZ024-NYZ072-PAZ021-071-VAZ022-071-220700-
OTHER REGIONAL OBSERVATIONS

CITY           SKY/WX    TMP DP  RH WIND       PRES   REMARKS
NEW YORK CITY  CLEAR     76  70  82 VRB5      30.10F
PHILADELPHIA   CLOUDY    77  73  87 S7        30.09F
PITTSBURGH     CLOUDY    73  70  90 S5        30.07F
ROANOKE        CLEAR     72  71  97 CALM      30.18F
RICHMOND       CLEAR     75  73  93 S3        30.12F
RALEIGH        PTCLDY    77  72  84 CALM      30.16F

$$

ANZ530>537-220700-
MARINE OBSERVATIONS

STATION/POSITION TIME  TEMP    WIND        PRES
                       AIR SEA DIR/SP/G
                 (UTC) (F)     (DEG/KT/KT) (MB)
THOMAS PT LIGHT  0600   79 81  200/ 11/ 12   N/A
BALT KEY BRIDGE  0542   74     280/  4/  5 1018.8F
COVE POINT       0542   79     220/ 12/ 14 1019.8F
LEWISETTA        0542   78 83  230/  9/ 11 1019.5F
SOLOMONS ISLAND  0542   79 82  220/ 12/ 14   N/A
PINEY POINT      0542          210/  7/  9   N/A

$$





USA.gov is the U.S. government's official web portal to all federal, state and local government web resources and services.